Location: El Carrer d�Abaix
(41.5797°N, 2.1791°E)
Time: 12:38:42
(UTC+00:00)

Cosmos 1437 Rocket - Pass Details

Date: 06 June 2020
Orbit: 507 x 561 km, 81.2° (Epoch: 11 July)

Event Time Altitude Azimuth Distance (km) Brightness Sun altitude
Rises 20:16:46 0° 198° (SSW) 2,601 6.0 -8.9°
Reaches altitude 10° 20:18:54 10° 203° (SSW) 1,724 5.2 -9.2°
Maximum altitude 20:22:37 55° 282° (WNW) 624 3.5 -9.7°
Drops below altitude 10° 20:26:25 10° 1° (N) 1,759 6.0 -10.2°
Sets 20:28:37 0° 6° (N) 2,661 6.9 -10.5°
